Terug naar catalogus

CZ-6A DEB

ActiefSSO
NORAD 54918·DEBRIS·🇨🇳 China

Gelanceerd Nov 11, 2022 vanaf Taiyuan Satellite Launch Center

Loading…

Volgende Passages (komende 24 uur)

TLE

VersSource: Space-Track

Epoch: Sep 14, 2026, 23:26 UTC

1 54918U 22151RF  26257.97701411  .00001484  00000-0  69412-3 0  9992
2 54918  98.8143 273.4178 0030140  45.2682 315.0941 14.21579417195075

Volg CZ-6A DEB in realtime met AllMySat

Download on the App Store